| time (UTC) | temp F | wind direction | speed MPH | gust MPH | rain 1hr in | rain 24hr in | rain mn in | humidity % | barometer mb |
| 20260504173044 | 70 | 203 | 4.0 | 10.0 | 0.00 | 0.00 | 0.00 | 36 | 1008.7 |
| 20260504172526 | 70 | 264 | 4.0 | 12.0 | 0.00 | 0.00 | 0.00 | 36 | 1008.5 |
| 20260504172028 | 69 | 224 | 3.0 | 12.0 | 0.00 | 0.00 | 0.00 | 36 | 1008.7 |
| 20260504171540 | 70 | 239 | 6.0 | 12.0 | 0.00 | 0.00 | 0.00 | 35 | 1008.8 |
| 20260504171028 | 69 | 341 | 3.0 | 11.0 | 0.00 | 0.00 | 0.00 | 35 | 1008.9 |
| 20260504170529 | 69 | 332 | 3.0 | 10.0 | 0.00 | 0.00 | 0.00 | 39 | 1009.0 |
| 20260504151026 | 64 | 188 | 3.0 | 11.0 | 0.00 | 0.00 | 0.00 | 42 | 1010.2 |
| 20260504150531 | 64 | 172 | 5.0 | 11.0 | 0.00 | 0.00 | 0.00 | 39 | 1010.3 |
| 20260504141029 | 61 | 215 | 2.0 | 9.0 | 0.00 | 0.00 | 0.00 | 43 | 1011.0 |
| 20260504140527 | 61 | 180 | 3.0 | 8.0 | 0.00 | 0.00 | 0.00 | 44 | 1010.9 |
| 20260504130527 | 56 | 191 | 3.0 | 8.0 | 0.00 | 0.00 | 0.00 | 53 | 1011.5 |
| 20260504110529 | 35 | 0 | 0.0 | 0.0 | 0.00 | 0.00 | 0.00 | 87 | 1011.9 |
| 20260504100528 | 34 | 0 | 0.0 | 0.0 | 0.00 | 0.00 | 0.00 | 86 | 1011.9 |
| 20260504081541 | 35 | 0 | 0.0 | 0.0 | 0.00 | 0.00 | 0.00 | 85 | 1011.3 |
| 20260504081032 | 35 | 0 | 0.0 | 0.0 | 0.00 | 0.00 | 0.00 | 85 | 1011.4 |
| 20260504080529 | 35 | 0 | 0.0 | 0.0 | 0.00 | 0.00 | 0.00 | 85 | 1011.4 |
| 20260504080217 | 35 | 0 | 0.0 | 0.0 | 0.00 | 0.00 | 0.00 | 85 | 1011.5 |
| 20260504050528 | 39 | 0 | 0.0 | 0.0 | 0.00 | 0.00 | 0.00 | 80 | 1011.1 |
| 20260504050117 | 39 | 0 | 0.0 | 1.0 | 0.00 | 0.00 | 0.00 | 79 | 1011.0 |
| 20260504045528 | 39 | 0 | 0.0 | 1.0 | 0.00 | 0.00 | 0.00 | 79 | 1011.1 |
| 20260504045028 | 40 | 0 | 0.0 | 0.0 | 0.00 | 0.00 | 0.00 | 79 | 1011.0 |
| 20260504044543 | 40 | 0 | 0.0 | 0.0 | 0.00 | 0.00 | 0.00 | 79 | 1011.1 |
| 20260504044028 | 40 | 0 | 0.0 | 0.0 | 0.00 | 0.00 | 0.00 | 79 | 1011.2 |
| 20260504043535 | 40 | 0 | 0.0 | 0.0 | 0.00 | 0.00 | 0.00 | 80 | 1011.1 |
| 20260504043042 | 40 | 0 | 0.0 | 1.0 | 0.00 | 0.00 | 0.00 | 80 | 1011.0 |
| 20260504042528 | 40 | 0 | 0.0 | 1.0 | 0.00 | 0.00 | 0.00 | 80 | 1011.2 |
| 20260504042028 | 40 | 0 | 0.0 | 1.0 | 0.00 | 0.00 | 0.00 | 80 | 1011.1 |
| 20260504041541 | 40 | 0 | 0.0 | 0.0 | 0.00 | 0.00 | 0.00 | 79 | 1011.2 |
| 20260504041028 | 40 | 0 | 0.0 | 0.0 | 0.00 | 0.00 | 0.00 | 79 | 1011.2 |
| 20260504040529 | 40 | 0 | 0.0 | 0.0 | 0.00 | 0.00 | 0.00 | 78 | 1011.2 |
| 20260504040043 | 40 | 0 | 0.0 | 0.0 | 0.00 | 0.00 | 0.00 | 78 | 1011.1 |
| 20260504035532 | 40 | 0 | 0.0 | 0.0 | 0.00 | 0.00 | 0.00 | 77 | 1011.2 |
| 20260504035029 | 40 | 0 | 0.0 | 0.0 | 0.00 | 0.00 | 0.00 | 77 | 1011.1 |
| 20260504034552 | 40 | 0 | 0.0 | 0.0 | 0.00 | 0.00 | 0.00 | 77 | 1011.2 |
| 20260504034028 | 41 | 0 | 0.0 | 0.0 | 0.00 | 0.00 | 0.00 | 76 | 1011.2 |
| 20260504033528 | 41 | 0 | 0.0 | 0.0 | 0.00 | 0.00 | 0.00 | 76 | 1011.2 |
| 20260504033055 | 41 | 0 | 0.0 | 0.0 | 0.00 | 0.00 | 0.00 | 76 | 1011.1 |
| 20260504032528 | 41 | 0 | 0.0 | 0.0 | 0.00 | 0.00 | 0.00 | 75 | 1011.1 |
| 20260504032028 | 41 | 0 | 0.0 | 0.0 | 0.00 | 0.00 | 0.00 | 75 | 1011.1 |
| 20260504031559 | 42 | 0 | 0.0 | 0.0 | 0.00 | 0.00 | 0.00 | 74 | 1011.0 |
| 20260504031028 | 42 | 0 | 0.0 | 0.0 | 0.00 | 0.00 | 0.00 | 74 | 1011.0 |
| 20260504030528 | 42 | 0 | 0.0 | 0.0 | 0.00 | 0.00 | 0.00 | 74 | 1010.9 |
| 20260504030056 | 42 | 0 | 0.0 | 0.0 | 0.00 | 0.00 | 0.00 | 73 | 1010.9 |
| 20260504025528 | 42 | 0 | 0.0 | 0.0 | 0.00 | 0.00 | 0.00 | 72 | 1010.9 |
| 20260504025029 | 43 | 0 | 0.0 | 0.0 | 0.00 | 0.00 | 0.00 | 71 | 1010.9 |
| 20260504024543 | 43 | 0 | 0.0 | 0.0 | 0.00 | 0.00 | 0.00 | 71 | 1011.0 |
| 20260504024028 | 43 | 0 | 0.0 | 0.0 | 0.00 | 0.00 | 0.00 | 71 | 1011.0 |
| 20260504023528 | 44 | 0 | 0.0 | 0.0 | 0.00 | 0.00 | 0.00 | 69 | 1011.0 |
| 20260504023044 | 44 | 0 | 0.0 | 0.0 | 0.00 | 0.00 | 0.00 | 69 | 1011.0 |
| 20260504022530 | 44 | 0 | 0.0 | 2.0 | 0.00 | 0.00 | 0.00 | 68 | 1010.9 |
| 20260504022027 | 44 | 0 | 0.0 | 2.0 | 0.00 | 0.00 | 0.00 | 67 | 1010.9 |
| 20260504021540 | 45 | 0 | 0.0 | 1.0 | 0.00 | 0.00 | 0.00 | 66 | 1010.9 |
| 20260504021027 | 45 | 0 | 0.0 | 0.0 | 0.00 | 0.00 | 0.00 | 66 | 1011.0 |
| 20260504020527 | 45 | 0 | 0.0 | 0.0 | 0.00 | 0.00 | 0.00 | 66 | 1010.9 |
| 20260504020041 | 46 | 0 | 0.0 | 0.0 | 0.00 | 0.00 | 0.00 | 66 | 1010.9 |
| 20260504015528 | 46 | 0 | 0.0 | 0.0 | 0.00 | 0.00 | 0.00 | 66 | 1010.9 |
| 20260504015030 | 47 | 0 | 0.0 | 0.0 | 0.00 | 0.00 | 0.00 | 66 | 1010.9 |
| 20260504014542 | 47 | 0 | 0.0 | 0.0 | 0.00 | 0.00 | 0.00 | 66 | 1010.8 |
| 20260504014032 | 48 | 0 | 0.0 | 0.0 | 0.00 | 0.00 | 0.00 | 66 | 1010.8 |
| 20260504013526 | 48 | 0 | 0.0 | 0.0 | 0.00 | 0.00 | 0.00 | 67 | 1010.9 |
| 20260504013041 | 48 | 0 | 0.0 | 0.0 | 0.00 | 0.00 | 0.00 | 67 | 1010.9 |
| 20260504012528 | 49 | 0 | 0.0 | 0.0 | 0.00 | 0.00 | 0.00 | 66 | 1010.8 |
| 20260504012027 | 49 | 0 | 0.0 | 0.0 | 0.00 | 0.00 | 0.00 | 61 | 1010.7 |
| 20260504011542 | 49 | 0 | 0.0 | 0.0 | 0.00 | 0.00 | 0.00 | 56 | 1010.8 |
| 20260504011032 | 50 | 0 | 0.0 | 0.0 | 0.00 | 0.00 | 0.00 | 53 | 1010.7 |
| 20260504010527 | 50 | 0 | 0.0 | 0.0 | 0.00 | 0.00 | 0.00 | 53 | 1010.7 |
| 20260504010046 | 50 | 0 | 0.0 | 0.0 | 0.00 | 0.00 | 0.00 | 54 | 1010.5 |
| 20260504005528 | 51 | 0 | 0.0 | 0.0 | 0.00 | 0.00 | 0.00 | 57 | 1010.5 |
| 20260504005028 | 51 | 0 | 0.0 | 0.0 | 0.00 | 0.00 | 0.00 | 54 | 1010.4 |
| 20260504004541 | 51 | 0 | 0.0 | 0.0 | 0.00 | 0.00 | 0.00 | 53 | 1010.4 |
| 20260504004027 | 52 | 0 | 0.0 | 0.0 | 0.00 | 0.00 | 0.00 | 52 | 1010.2 |
| 20260504003527 | 52 | 0 | 0.0 | 0.0 | 0.00 | 0.00 | 0.00 | 50 | 1010.2 |
| 20260504003043 | 53 | 0 | 0.0 | 0.0 | 0.00 | 0.00 | 0.00 | 49 | 1010.2 |
| 20260504002531 | 53 | 0 | 0.0 | 0.0 | 0.00 | 0.00 | 0.00 | 45 | 1010.0 |
| 20260504002027 | 53 | 0 | 0.0 | 4.0 | 0.00 | 0.00 | 0.00 | 45 | 1009.9 |
| 20260504001537 | 54 | 0 | 0.0 | 4.0 | 0.00 | 0.00 | 0.00 | 43 | 1009.8 |
| 20260504001030 | 54 | 218 | 0.0 | 5.0 | 0.00 | 0.00 | 0.00 | 44 | 1009.8 |
| 20260504000528 | 54 | 248 | 0.0 | 5.0 | 0.00 | 0.00 | 0.00 | 44 | 1009.7 |
| 20260504000111 | 55 | 276 | 0.0 | 0.0 | 0.00 | 0.00 | 0.00 | 43 | 1009.6 |
| 20260503235528 | 55 | 0 | 0.0 | 6.0 | 0.00 | 0.00 | 0.00 | 42 | 1009.5 |
| 20260503235028 | 55 | 0 | 0.0 | 6.0 | 0.00 | 0.00 | 0.00 | 39 | 1009.5 |
| 20260503234539 | 56 | 284 | 1.0 | 6.0 | 0.00 | 0.00 | 0.00 | 38 | 1009.4 |
| 20260503234028 | 56 | 0 | 1.0 | 3.0 | 0.00 | 0.00 | 0.00 | 36 | 1009.4 |
| 20260503233530 | 56 | 0 | 0.0 | 7.0 | 0.00 | 0.00 | 0.00 | 38 | 1009.3 |
| 20260503233041 | 56 | 0 | 2.0 | 7.0 | 0.00 | 0.00 | 0.00 | 35 | 1009.3 |
| 20260503232530 | 56 | 292 | 0.0 | 3.0 | 0.00 | 0.00 | 0.00 | 44 | 1009.3 |
| 20260503232027 | 56 | 0 | 0.0 | 8.0 | 0.00 | 0.00 | 0.00 | 32 | 1009.3 |
| 20260503231541 | 57 | 292 | 1.0 | 8.0 | 0.00 | 0.00 | 0.00 | 33 | 1009.1 |
| 20260503231031 | 57 | 306 | 3.0 | 9.0 | 0.00 | 0.00 | 0.00 | 32 | 1009.1 |
| 20260503230528 | 57 | 0 | 2.0 | 9.0 | 0.00 | 0.00 | 0.00 | 31 | 1009.0 |
| 20260503230044 | 57 | 315 | 1.0 | 6.0 | 0.00 | 0.00 | 0.00 | 31 | 1009.0 |
| 20260503225527 | 57 | 291 | 1.0 | 4.0 | 0.00 | 0.00 | 0.00 | 32 | 1009.0 |
| 20260503225029 | 57 | 0 | 1.0 | 5.0 | 0.00 | 0.00 | 0.00 | 30 | 1008.8 |
| 20260503224542 | 58 | 0 | 2.0 | 9.0 | 0.00 | 0.00 | 0.00 | 30 | 1008.8 |
| 20260503224031 | 58 | 313 | 1.0 | 10.0 | 0.00 | 0.00 | 0.00 | 32 | 1008.8 |
| 20260503223528 | 58 | 333 | 2.0 | 10.0 | 0.00 | 0.00 | 0.00 | 29 | 1008.8 |
| 20260503223039 | 58 | 303 | 1.0 | 10.0 | 0.00 | 0.00 | 0.00 | 31 | 1008.7 |
| 20260503222527 | 59 | 331 | 2.0 | 8.0 | 0.00 | 0.00 | 0.00 | 29 | 1008.5 |
| 20260503222028 | 59 | 0 | 2.0 | 9.0 | 0.00 | 0.00 | 0.00 | 29 | 1008.5 |
| 20260503221541 | 59 | 269 | 2.0 | 12.0 | 0.00 | 0.00 | 0.00 | 29 | 1008.6 |
| 20260503221027 | 59 | 304 | 4.0 | 14.0 | 0.00 | 0.00 | 0.00 | 28 | 1008.7 |
| 20260503220528 | 59 | 258 | 2.0 | 14.0 | 0.00 | 0.00 | 0.00 | 30 | 1008.8 |
| 20260503220049 | 59 | 325 | 4.0 | 13.0 | 0.00 | 0.00 | 0.00 | 29 | 1009.0 |
| 20260503215530 | 59 | 0 | 1.0 | 13.0 | 0.00 | 0.00 | 0.00 | 30 | 1008.8 |
| 20260503215031 | 59 | 342 | 3.0 | 11.0 | 0.00 | 0.00 | 0.00 | 30 | 1008.8 |
| 20260503214541 | 58 | 15 | 4.0 | 11.0 | 0.00 | 0.00 | 0.00 | 31 | 1008.9 |
| 20260503214029 | 58 | 284 | 2.0 | 13.0 | 0.00 | 0.00 | 0.00 | 30 | 1008.8 |
| 20260503213528 | 58 | 273 | 4.0 | 13.0 | 0.00 | 0.00 | 0.00 | 29 | 1008.8 |
| 20260503213038 | 58 | 30 | 4.0 | 13.0 | 0.00 | 0.00 | 0.00 | 32 | 1008.8 |
| 20260503212528 | 58 | 11 | 4.0 | 12.0 | 0.00 | 0.00 | 0.00 | 32 | 1008.7 |
| 20260503212027 | 58 | 0 | 3.0 | 10.0 | 0.00 | 0.00 | 0.00 | 31 | 1008.7 |
| 20260503211540 | 58 | 51 | 2.0 | 13.0 | 0.00 | 0.00 | 0.00 | 31 | 1008.7 |
| 20260503211027 | 58 | 15 | 4.0 | 13.0 | 0.00 | 0.00 | 0.00 | 30 | 1008.8 |
| 20260503210528 | 58 | 314 | 4.0 | 12.0 | 0.00 | 0.00 | 0.00 | 31 | 1008.8 |
| 20260503210037 | 58 | 105 | 3.0 | 12.0 | 0.00 | 0.00 | 0.00 | 31 | 1008.8 |
| 20260503205528 | 58 | 285 | 6.0 | 12.0 | 0.00 | 0.00 | 0.00 | 31 | 1008.8 |
| 20260503205027 | 58 | 242 | 3.0 | 12.0 | 0.00 | 0.00 | 0.00 | 33 | 1008.7 |
| 20260503204544 | 58 | 135 | 2.0 | 13.0 | 0.00 | 0.00 | 0.00 | 32 | 1008.7 |
| 20260503204028 | 58 | 244 | 4.0 | 13.0 | 0.00 | 0.00 | 0.00 | 32 | 1008.7 |
| 20260503203532 | 58 | 309 | 2.0 | 12.0 | 0.00 | 0.00 | 0.00 | 34 | 1009.0 |
| 20260503203042 | 58 | 332 | 4.0 | 15.0 | 0.00 | 0.00 | 0.00 | 32 | 1008.9 |
| 20260503202528 | 58 | 227 | 2.0 | 15.0 | 0.00 | 0.00 | 0.00 | 32 | 1008.9 |
| 20260503202031 | 58 | 119 | 6.0 | 15.0 | 0.00 | 0.00 | 0.00 | 32 | 1009.1 |
| 20260503201538 | 57 | 345 | 2.0 | 11.0 | 0.00 | 0.00 | 0.00 | 33 | 1009.1 |
| 20260503201027 | 57 | 336 | 2.0 | 12.0 | 0.00 | 0.00 | 0.00 | 34 | 1009.1 |
| 20260503200529 | 57 | 327 | 6.0 | 12.0 | 0.00 | 0.00 | 0.00 | 33 | 1009.3 |
| 20260503200038 | 57 | 61 | 4.0 | 13.0 | 0.00 | 0.00 | 0.00 | 37 | 1009.3 |
| 20260503195527 | 57 | 77 | 4.0 | 13.0 | 0.00 | 0.00 | 0.00 | 36 | 1009.3 |
| 20260503195028 | 57 | 67 | 5.0 | 11.0 | 0.00 | 0.00 | 0.00 | 36 | 1009.3 |
| 20260503194547 | 57 | 323 | 5.0 | 11.0 | 0.00 | 0.00 | 0.00 | 35 | 1009.3 |
| 20260503194029 | 57 | 55 | 4.0 | 10.0 | 0.00 | 0.00 | 0.00 | 36 | 1009.5 |
| 20260503193530 | 57 | 22 | 3.0 | 10.0 | 0.00 | 0.00 | 0.00 | 37 | 1009.5 |
| 20260503193044 | 57 | 53 | 3.0 | 12.0 | 0.00 | 0.00 | 0.00 | 39 | 1009.6 |
| 20260503192527 | 56 | 46 | 4.0 | 12.0 | 0.00 | 0.00 | 0.00 | 40 | 1009.6 |
| 20260503192032 | 56 | 121 | 4.0 | 12.0 | 0.00 | 0.00 | 0.00 | 38 | 1009.6 |
| 20260503191540 | 56 | 360 | 3.0 | 8.0 | 0.00 | 0.00 | 0.00 | 39 | 1009.7 |
| 20260503191028 | 56 | 329 | 2.0 | 8.0 | 0.00 | 0.00 | 0.00 | 37 | 1009.8 |
| 20260503190528 | 55 | 25 | 3.0 | 17.0 | 0.00 | 0.00 | 0.00 | 40 | 1009.9 |
| 20260503190041 | 55 | 296 | 6.0 | 17.0 | 0.00 | 0.00 | 0.00 | 40 | 1009.8 |
| 20260503185527 | 55 | 315 | 5.0 | 17.0 | 0.00 | 0.00 | 0.00 | 40 | 1009.8 |
| 20260503185029 | 54 | 42 | 4.0 | 16.0 | 0.00 | 0.00 | 0.00 | 38 | 1009.9 |
| 20260503184557 | 54 | 89 | 4.0 | 11.0 | 0.00 | 0.00 | 0.00 | 41 | 1009.9 |
| 20260503184027 | 53 | 286 | 4.0 | 11.0 | 0.00 | 0.00 | 0.00 | 41 | 1010.0 |
| 20260503183527 | 53 | 40 | 3.0 | 14.0 | 0.00 | 0.00 | 0.00 | 42 | 1010.1 |
| 20260503183049 | 52 | 119 | 5.0 | 16.0 | 0.00 | 0.00 | 0.00 | 42 | 1010.1 |
| 20260503182528 | 52 | 316 | 6.0 | 18.0 | 0.00 | 0.00 | 0.00 | 40 | 1010.4 |
| 20260503182028 | 52 | 341 | 4.0 | 18.0 | 0.00 | 0.00 | 0.00 | 41 | 1010.3 |
| 20260503181546 | 52 | 103 | 8.0 | 18.0 | 0.00 | 0.00 | 0.00 | 39 | 1010.2 |
| 20260503181031 | 52 | 259 | 3.0 | 11.0 | 0.00 | 0.00 | 0.00 | 45 | 1010.3 |
| 20260503180528 | 52 | 57 | 5.0 | 14.0 | 0.00 | 0.00 | 0.00 | 42 | 1010.4 |
| 20260503180040 | 53 | 306 | 4.0 | 14.0 | 0.00 | 0.00 | 0.00 | 40 | 1010.2 |
| 20260503175527 | 53 | 44 | 2.0 | 15.0 | 0.00 | 0.00 | 0.00 | 41 | 1010.2 |
| 20260503175027 | 53 | 360 | 8.0 | 15.0 | 0.00 | 0.00 | 0.00 | 38 | 1010.4 |
| 20260503174537 | 53 | 18 | 4.0 | 13.0 | 0.00 | 0.00 | 0.00 | 42 | 1010.2 |
| 20260503174030 | 52 | 64 | 6.0 | 13.0 | 0.00 | 0.00 | 0.00 | 39 | 1010.5 |
| 20260503173527 | 52 | 327 | 3.0 | 12.0 | 0.00 | 0.00 | 0.00 | 46 | 1010.3 |